| time (UTC) | temp F | wind direction | speed MPH | gust MPH | rain 1hr in | rain 24hr in | rain mn in | humidity % | barometer mb |
| 20260906044541 | 63 | 0 | 0.0 | 1.0 | 0.00 | 0.18 | 0.00 | 91 | 1016.5 |
| 20260906043046 | 63 | 0 | 0.0 | 2.0 | 0.00 | 0.18 | 0.00 | 92 | 1016.6 |
| 20260906041540 | 62 | 0 | 0.0 | 0.0 | 0.00 | 0.18 | 0.00 | 91 | 1016.4 |
| 20260906040043 | 62 | 0 | 0.0 | 0.0 | 0.00 | 0.18 | 0.00 | 91 | 1016.5 |
| 20260906034544 | 62 | 0 | 0.0 | 0.0 | 0.00 | 0.18 | 0.18 | 91 | 1016.4 |
| 20260906033055 | 62 | 0 | 0.0 | 0.0 | 0.00 | 0.18 | 0.18 | 91 | 1016.4 |
| 20260906031539 | 62 | 0 | 0.0 | 1.0 | 0.00 | 0.18 | 0.18 | 92 | 1016.5 |
| 20260906030040 | 61 | 0 | 0.0 | 0.0 | 0.00 | 0.18 | 0.18 | 91 | 1016.6 |
| 20260906024542 | 61 | 0 | 0.0 | 1.0 | 0.00 | 0.18 | 0.18 | 91 | 1016.2 |
| 20260906023042 | 61 | 0 | 0.0 | 0.0 | 0.00 | 0.18 | 0.18 | 90 | 1016.1 |
| 20260906021548 | 61 | 0 | 0.0 | 0.0 | 0.00 | 0.18 | 0.18 | 90 | 1016.1 |
| 20260906020049 | 61 | 0 | 0.0 | 0.0 | 0.00 | 0.18 | 0.18 | 89 | 1015.9 |
| 20260906014554 | 61 | 0 | 0.0 | 0.0 | 0.00 | 0.18 | 0.18 | 88 | 1015.7 |
| 20260906013041 | 62 | 0 | 0.0 | 0.0 | 0.00 | 0.18 | 0.18 | 87 | 1015.6 |
| 20260906011542 | 62 | 0 | 0.0 | 0.0 | 0.00 | 0.18 | 0.18 | 86 | 1015.6 |
| 20260906010047 | 63 | 0 | 0.0 | 0.0 | 0.00 | 0.18 | 0.18 | 85 | 1015.6 |
| 20260906004544 | 64 | 0 | 0.0 | 0.0 | 0.00 | 0.18 | 0.18 | 84 | 1015.5 |
| 20260906003045 | 65 | 0 | 0.0 | 0.0 | 0.00 | 0.18 | 0.18 | 82 | 1015.6 |
| 20260906001543 | 66 | 0 | 0.0 | 0.0 | 0.00 | 0.18 | 0.18 | 79 | 1015.4 |
| 20260906000046 | 67 | 0 | 0.0 | 0.0 | 0.00 | 0.18 | 0.18 | 77 | 1015.3 |
| 20260905234547 | 69 | 0 | 0.0 | 0.0 | 0.00 | 0.18 | 0.18 | 75 | 1015.2 |
| 20260905233042 | 70 | 0 | 0.0 | 3.0 | 0.00 | 0.18 | 0.18 | 72 | 1015.2 |
| 20260905231546 | 71 | 83 | 1.0 | 7.0 | 0.00 | 0.18 | 0.18 | 71 | 1015.1 |
| 20260905230107 | 72 | 0 | 0.0 | 2.0 | 0.00 | 0.18 | 0.18 | 72 | 1015.0 |
| 20260905224543 | 73 | 11 | 1.0 | 5.0 | 0.00 | 0.18 | 0.18 | 72 | 1015.0 |
| 20260905223043 | 74 | 244 | 1.0 | 4.0 | 0.00 | 0.18 | 0.18 | 73 | 1014.9 |
| 20260905221543 | 74 | 321 | 3.0 | 10.0 | 0.00 | 0.18 | 0.18 | 72 | 1014.8 |
| 20260905220045 | 75 | 329 | 1.0 | 5.0 | 0.00 | 0.18 | 0.18 | 73 | 1014.8 |
| 20260905214544 | 75 | 111 | 1.0 | 9.0 | 0.00 | 0.18 | 0.18 | 75 | 1014.5 |
| 20260905213048 | 74 | 93 | 2.0 | 8.0 | 0.00 | 0.18 | 0.18 | 75 | 1014.4 |
| 20260905211548 | 74 | 312 | 1.0 | 7.0 | 0.00 | 0.18 | 0.18 | 77 | 1014.4 |
| 20260905210042 | 74 | 333 | 1.0 | 6.0 | 0.00 | 0.18 | 0.18 | 77 | 1014.4 |
| 20260905204540 | 74 | 50 | 1.0 | 8.0 | 0.00 | 0.18 | 0.18 | 77 | 1014.5 |
| 20260905203052 | 75 | 317 | 2.0 | 9.0 | 0.00 | 0.18 | 0.18 | 77 | 1014.6 |
| 20260905201543 | 75 | 0 | 2.0 | 4.0 | 0.00 | 0.18 | 0.18 | 75 | 1014.8 |
| 20260905200042 | 76 | 219 | 2.0 | 9.0 | 0.00 | 0.18 | 0.18 | 76 | 1014.8 |
| 20260905194546 | 76 | 111 | 0.0 | 4.0 | 0.00 | 0.18 | 0.18 | 78 | 1014.8 |
| 20260905193053 | 77 | 30 | 1.0 | 5.0 | 0.00 | 0.18 | 0.18 | 76 | 1014.7 |
| 20260905191543 | 77 | 28 | 2.0 | 9.0 | 0.00 | 0.18 | 0.18 | 76 | 1014.6 |
| 20260905190038 | 78 | 333 | 1.0 | 8.0 | 0.00 | 0.18 | 0.18 | 78 | 1014.6 |
| 20260905184548 | 77 | 311 | 1.0 | 9.0 | 0.00 | 0.18 | 0.18 | 84 | 1014.6 |
| 20260905183046 | 76 | 319 | 2.0 | 8.0 | 0.00 | 0.18 | 0.18 | 84 | 1014.7 |
| 20260905181546 | 76 | 0 | 2.0 | 6.0 | 0.00 | 0.18 | 0.18 | 86 | 1014.7 |
| 20260905180042 | 76 | 19 | 0.0 | 2.0 | 0.00 | 0.18 | 0.18 | 88 | 1014.9 |
| 20260905174546 | 76 | 0 | 1.0 | 4.0 | 0.00 | 0.22 | 0.18 | 88 | 1014.9 |
| 20260905173045 | 75 | 113 | 0.0 | 4.0 | 0.00 | 0.22 | 0.18 | 91 | 1014.8 |
| 20260905171542 | 75 | 349 | 0.0 | 2.0 | 0.00 | 0.22 | 0.18 | 92 | 1014.9 |
| 20260905170041 | 74 | 343 | 0.0 | 4.0 | 0.01 | 0.22 | 0.18 | 91 | 1015.0 |
| 20260905164544 | 74 | 134 | 0.0 | 3.0 | 0.17 | 0.24 | 0.18 | 93 | 1015.0 |
| 20260905163043 | 74 | 0 | 1.0 | 3.0 | 0.17 | 0.24 | 0.18 | 93 | 1015.1 |
| 20260905161541 | 73 | 67 | 1.0 | 3.0 | 0.17 | 0.24 | 0.18 | 93 | 1015.1 |
| 20260905160045 | 74 | 0 | 0.0 | 3.0 | 0.15 | 0.22 | 0.16 | 91 | 1015.1 |
| 20260905154555 | 74 | 0 | 0.0 | 0.0 | 0.00 | 0.14 | 0.01 | 91 | 1015.0 |
| 20260905153043 | 74 | 0 | 0.0 | 0.0 | 0.00 | 0.14 | 0.01 | 94 | 1014.9 |
| 20260905151547 | 74 | 0 | 0.0 | 0.0 | 0.00 | 0.14 | 0.01 | 94 | 1014.7 |
| 20260905150043 | 74 | 0 | 0.0 | 0.0 | 0.00 | 0.14 | 0.01 | 94 | 1014.6 |
| 20260905144543 | 74 | 0 | 0.0 | 0.0 | 0.00 | 0.14 | 0.01 | 95 | 1014.4 |
| 20260905143039 | 74 | 0 | 0.0 | 0.0 | 0.00 | 0.14 | 0.01 | 95 | 1014.4 |
| 20260905141546 | 74 | 0 | 0.0 | 0.0 | 0.00 | 0.14 | 0.01 | 95 | 1014.4 |
| 20260905140045 | 74 | 0 | 0.0 | 0.0 | 0.00 | 0.14 | 0.01 | 95 | 1014.2 |
| 20260905134547 | 74 | 0 | 0.0 | 0.0 | 0.00 | 0.24 | 0.01 | 96 | 1014.3 |
| 20260905133040 | 73 | 0 | 0.0 | 0.0 | 0.00 | 0.24 | 0.01 | 96 | 1014.4 |
| 20260905131545 | 73 | 0 | 0.0 | 0.0 | 0.00 | 0.24 | 0.01 | 96 | 1014.6 |
| 20260905130043 | 73 | 0 | 0.0 | 0.0 | 0.00 | 0.24 | 0.01 | 97 | 1014.5 |
| 20260905124542 | 72 | 0 | 0.0 | 0.0 | 0.00 | 0.31 | 0.01 | 96 | 1014.4 |
| 20260905123043 | 71 | 0 | 0.0 | 0.0 | 0.00 | 0.31 | 0.01 | 97 | 1014.2 |
| 20260905121542 | 71 | 0 | 0.0 | 0.0 | 0.00 | 0.31 | 0.01 | 96 | 1014.3 |
| 20260905120043 | 70 | 0 | 0.0 | 0.0 | 0.00 | 0.31 | 0.01 | 96 | 1014.1 |
| 20260905114543 | 70 | 0 | 0.0 | 0.0 | 0.00 | 0.31 | 0.01 | 96 | 1014.2 |
| 20260905113045 | 70 | 0 | 0.0 | 0.0 | 0.00 | 0.31 | 0.01 | 96 | 1013.9 |
| 20260905111542 | 70 | 0 | 0.0 | 0.0 | 0.00 | 0.31 | 0.01 | 96 | 1013.9 |
| 20260905110046 | 70 | 0 | 0.0 | 0.0 | 0.00 | 0.31 | 0.01 | 96 | 1014.0 |
| 20260905104545 | 70 | 0 | 0.0 | 0.0 | 0.00 | 0.31 | 0.01 | 96 | 1014.2 |
| 20260905103044 | 70 | 0 | 0.0 | 0.0 | 0.00 | 0.31 | 0.01 | 96 | 1014.5 |
| 20260905101538 | 70 | 0 | 0.0 | 0.0 | 0.00 | 0.31 | 0.01 | 96 | 1014.6 |
| 20260905100045 | 69 | 0 | 0.0 | 0.0 | 0.00 | 0.31 | 0.01 | 96 | 1015.2 |
| 20260905094542 | 69 | 0 | 0.0 | 0.0 | 0.00 | 0.31 | 0.01 | 96 | 1015.1 |
| 20260905093048 | 69 | 0 | 0.0 | 0.0 | 0.01 | 0.31 | 0.01 | 96 | 1014.6 |
| 20260905092017 | 68 | 0 | 0.0 | 0.0 | 0.01 | 0.31 | 0.01 | 96 | 1014.3 |
| 20260905090045 | 68 | 0 | 0.0 | 0.0 | 0.01 | 0.31 | 0.01 | 96 | 1013.9 |
| 20260905084542 | 68 | 0 | 0.0 | 0.0 | 0.00 | 0.30 | 0.00 | 96 | 1013.8 |
| 20260905083040 | 68 | 0 | 0.0 | 0.0 | 0.00 | 0.30 | 0.00 | 95 | 1013.8 |
| 20260905081538 | 68 | 0 | 0.0 | 0.0 | 0.00 | 0.30 | 0.00 | 95 | 1013.5 |
| 20260905080043 | 69 | 0 | 0.0 | 0.0 | 0.00 | 0.30 | 0.00 | 95 | 1013.0 |
| 20260905074540 | 69 | 0 | 0.0 | 0.0 | 0.00 | 0.30 | 0.00 | 95 | 1013.7 |
| 20260905073045 | 69 | 0 | 0.0 | 0.0 | 0.00 | 0.30 | 0.00 | 95 | 1013.5 |
| 20260905071544 | 69 | 0 | 0.0 | 0.0 | 0.00 | 0.30 | 0.00 | 95 | 1013.3 |
| 20260905070042 | 69 | 0 | 0.0 | 0.0 | 0.00 | 0.30 | 0.00 | 95 | 1013.5 |
| 20260905064544 | 69 | 0 | 0.0 | 0.0 | 0.00 | 0.30 | 0.00 | 95 | 1013.7 |
| 20260905063044 | 69 | 0 | 0.0 | 0.0 | 0.00 | 0.30 | 0.00 | 95 | 1013.6 |
| 20260905061547 | 69 | 0 | 0.0 | 0.0 | 0.00 | 0.30 | 0.00 | 95 | 1013.8 |
| 20260905060042 | 69 | 0 | 0.0 | 0.0 | 0.00 | 0.30 | 0.00 | 95 | 1014.1 |
| 20260905054541 | 70 | 0 | 0.0 | 0.0 | 0.00 | 0.30 | 0.00 | 95 | 1014.3 |
| 20260905053044 | 70 | 0 | 0.0 | 0.0 | 0.00 | 0.30 | 0.00 | 95 | 1014.6 |
| 20260905051544 | 70 | 0 | 0.0 | 0.0 | 0.00 | 0.30 | 0.00 | 95 | 1014.9 |